GW2742 Weather Reports


time (UTC)temp
F
wind
direction
speed
knots
gust
knots
rain 1hr
in
rain 24hr
in
rain mn
in
humidity
%
barometer
mb
20260903092027 60 0 0.9 2.6 0.00 0.00 0.00 55 1010.3
20260903091555 60 306 0.0 0.0 0.00 0.00 0.00 54 1010.3
20260903091024 60 0 0.0 0.0 0.00 0.00 0.00 53 1010.2
20260903090523 60 0 0.0 0.0 0.00 0.00 0.00 53 1010.2
20260903090047 61 0 0.0 0.9 0.00 0.00 0.00 56 1010.0
20260903085522 61 0 0.0 1.7 0.00 0.00 0.00 53 1010.0
20260903085022 61 0 0.0 1.7 0.00 0.00 0.00 50 1010.0
20260903084545 61 0 0.0 1.7 0.00 0.00 0.00 52 1009.8
20260903084025 61 306 0.0 0.9 0.00 0.00 0.00 53 1009.7
20260903083526 61 0 0.0 0.9 0.00 0.00 0.00 50 1009.7
20260903083044 62 0 0.0 0.9 0.00 0.00 0.00 52 1009.7
20260903082531 62 0 0.0 1.7 0.00 0.00 0.00 52 1009.7
20260903082024 62 0 0.0 3.5 0.00 0.00 0.00 53 1009.6
20260903081554 62 333 0.9 3.5 0.00 0.00 0.00 48 1009.5
20260903081030 62 333 0.9 3.5 0.00 0.00 0.00 49 1009.5
20260903080532 63 0 0.0 2.6 0.00 0.00 0.00 49 1009.5
20260903080045 63 0 0.0 2.6 0.00 0.00 0.00 49 1009.6
20260903075525 63 13 0.9 2.6 0.00 0.00 0.00 46 1009.5
20260903075031 63 119 0.0 1.7 0.00 0.00 0.00 46 1009.6
20260903074545 63 0 0.0 0.0 0.00 0.00 0.00 46 1009.6
20260903074028 63 0 0.0 2.6 0.00 0.00 0.00 46 1009.8
20260903073527 63 0 0.0 3.5 0.00 0.00 0.00 48 1009.6
20260903073052 63 127 0.9 3.5 0.00 0.00 0.00 46 1009.6
20260903072526 63 70 1.7 3.5 0.00 0.00 0.00 48 1009.7
20260903072027 63 342 0.9 5.2 0.00 0.00 0.00 48 1009.8
20260903071610 63 0 0.9 5.2 0.00 0.00 0.00 47 1009.8
20260903071023 64 359 2.6 5.2 0.00 0.00 0.00 50 1009.8
20260903070531 64 8 0.9 4.3 0.00 0.00 0.00 46 1009.8
20260903070059 64 78 1.7 3.5 0.00 0.00 0.00 44 1009.7
20260903065525 64 67 0.9 5.2 0.00 0.00 0.00 47 1009.8
20260903065025 64 305 2.6 5.2 0.00 0.00 0.00 50 1009.8
20260903064550 64 52 2.6 4.3 0.00 0.00 0.00 47 1009.6
20260903064027 64 0 0.9 3.5 0.00 0.00 0.00 47 1009.7
20260903063527 65 0 0.9 3.5 0.00 0.00 0.00 45 1009.5
20260903063059 66 136 0.9 3.5 0.00 0.00 0.00 45 1009.5
20260903062527 65 137 0.0 6.1 0.00 0.00 0.00 38 1009.4
20260903062026 65 0 0.9 6.1 0.00 0.00 0.00 38 1009.5
20260903061546 64 247 0.0 6.1 0.00 0.00 0.00 42 1009.6
20260903061026 64 0 0.0 1.7 0.00 0.00 0.00 42 1009.5
20260903060524 64 212 0.9 3.5 0.00 0.00 0.00 45 1009.5
20260903060048 63 0 0.9 3.5 0.00 0.00 0.00 46 1009.6
20260903055525 64 0 0.0 2.6 0.00 0.00 0.00 50 1009.6
20260903055024 64 249 0.0 2.6 0.00 0.00 0.00 51 1009.5
20260903054545 65 347 0.9 2.6 0.00 0.00 0.00 48 1009.5
20260903054028 65 0 0.9 1.7 0.00 0.00 0.00 45 1009.3
20260903053528 65 0 0.0 3.5 0.00 0.00 0.00 48 1009.4
20260903053052 65 236 0.0 3.5 0.00 0.00 0.00 46 1009.4
20260903052527 65 0 0.0 1.7 0.00 0.00 0.00 44 1009.5
20260903052025 65 0 0.0 1.7 0.00 0.00 0.00 43 1009.5
20260903051557 64 0 0.0 2.6 0.00 0.00 0.00 45 1009.5
20260903051026 64 0 0.0 2.6 0.00 0.00 0.00 46 1009.5
20260903050524 64 179 0.9 2.6 0.00 0.00 0.00 46 1009.5
20260903050056 64 217 0.0 2.6 0.00 0.00 0.00 50 1009.7
20260903045525 64 0 0.0 0.9 0.00 0.00 0.00 48 1009.6
20260903045026 64 243 0.0 0.9 0.00 0.00 0.00 49 1009.4
20260903044559 64 0 0.0 0.9 0.00 0.00 0.00 52 1009.4
20260903044028 64 0 0.0 0.9 0.00 0.00 0.00 53 1009.5
20260903043523 64 0 0.0 0.9 0.00 0.00 0.00 50 1009.5
20260903043045 64 0 0.0 1.7 0.00 0.00 0.00 50 1009.5
20260903042530 64 0 0.0 2.6 0.00 0.00 0.00 52 1009.5
20260903042024 64 0 0.0 2.6 0.00 0.00 0.00 50 1009.5
20260903041543 63 243 0.0 2.6 0.00 0.00 0.00 50 1009.5
20260903041025 63 0 0.0 1.7 0.00 0.00 0.00 55 1009.4
20260903040524 64 0 0.0 1.7 0.00 0.00 0.00 53 1009.3
20260903040058 64 239 0.0 2.6 0.00 0.00 0.00 54 1009.4
20260903035527 64 0 0.0 4.3 0.00 0.00 0.00 52 1009.4
20260903035030 64 0 0.9 4.3 0.00 0.00 0.00 51 1009.3
20260903034544 65 0 0.9 2.6 0.00 0.00 0.00 53 1009.2
20260903034027 65 216 0.0 2.6 0.00 0.00 0.00 50 1009.1
20260903033527 65 0 0.0 2.6 0.00 0.00 0.00 47 1009.1
20260903033044 66 0 0.0 0.9 0.00 0.00 0.00 48 1009.0
20260903032526 66 0 0.0 1.7 0.00 0.00 0.00 48 1009.1
20260903032026 66 0 0.0 2.6 0.00 0.00 0.00 47 1009.1
20260903031541 66 197 0.0 2.6 0.00 0.00 0.00 47 1009.0
20260903031025 66 0 0.0 1.7 0.00 0.00 0.00 49 1008.9
20260903030529 66 0 0.0 0.0 0.00 0.00 0.00 51 1008.8
20260903030052 67 0 0.0 0.0 0.00 0.00 0.00 49 1008.8
20260903025527 67 0 0.0 0.0 0.00 0.00 0.00 48 1008.8
20260903025028 67 0 0.0 3.5 0.00 0.00 0.00 47 1008.5
20260903024546 68 0 0.0 3.5 0.00 0.00 0.00 48 1008.3
20260903024027 69 207 0.9 3.5 0.00 0.00 0.00 49 1008.4
20260903023527 70 323 1.7 3.5 0.00 0.00 0.00 45 1008.3
20260903023047 71 0 0.0 0.0 0.00 0.00 0.00 41 1008.3
20260903022526 71 0 0.0 0.0 0.00 0.00 0.00 41 1008.0
20260903022025 72 0 0.0 0.0 0.00 0.00 0.00 40 1008.0
20260903021544 73 0 0.0 0.0 0.00 0.00 0.00 37 1007.8
20260903021025 73 0 0.0 0.0 0.00 0.00 0.00 37 1007.8
20260903020525 74 0 0.0 0.0 0.00 0.00 0.00 37 1007.7
20260903020054 75 0 0.0 1.7 0.00 0.00 0.00 37 1007.7
20260903015527 75 0 0.0 2.6 0.00 0.00 0.00 35 1007.7
20260903015027 76 263 0.9 2.6 0.00 0.00 0.00 33 1007.6
20260903014557 76 263 0.0 2.6 0.00 0.00 0.00 34 1007.7
20260903014029 76 241 0.9 2.6 0.00 0.00 0.00 34 1007.7
20260903013525 77 0 0.0 0.9 0.00 0.00 0.00 35 1007.6
20260903013055 77 0 0.0 0.0 0.00 0.00 0.00 35 1007.7
20260903012525 78 0 0.0 0.0 0.00 0.00 0.00 35 1007.9
20260903012024 78 0 0.0 0.0 0.00 0.00 0.00 33 1007.8
20260903011551 79 0 0.0 0.9 0.00 0.00 0.00 33 1007.7
20260903011029 79 0 0.0 1.7 0.00 0.00 0.00 33 1007.7
20260903010527 79 0 0.0 1.7 0.00 0.00 0.00 32 1007.7
20260903010049 80 0 0.0 2.6 0.00 0.00 0.00 31 1007.7
20260903005523 80 266 0.9 3.5 0.00 0.00 0.00 34 1007.7
20260903005025 80 264 0.9 3.5 0.00 0.00 0.00 32 1007.8
20260903004551 80 0 0.0 3.5 0.00 0.00 0.00 31 1007.8
20260903004028 80 262 0.9 5.2 0.00 0.00 0.00 31 1007.7
20260903003526 81 0 0.9 5.2 0.00 0.00 0.00 30 1007.7
20260903003057 81 248 1.7 5.2 0.00 0.00 0.00 30 1007.7
20260903002528 81 205 1.7 5.2 0.00 0.00 0.00 31 1007.6
20260903002026 81 183 1.7 7.0 0.00 0.00 0.00 29 1007.6
20260903001553 81 236 2.6 7.8 0.00 0.00 0.00 28 1007.6
20260903001025 81 203 4.3 7.8 0.00 0.00 0.00 27 1007.6
20260903000525 82 237 2.6 8.7 0.00 0.00 0.00 28 1007.6
20260903000058 82 231 3.5 8.7 0.00 0.00 0.00 27 1007.5
20260902235527 82 200 2.6 7.8 0.00 0.00 0.00 27 1007.4
20260902235026 82 251 3.5 9.6 0.00 0.00 0.00 28 1007.4
20260902234548 83 229 3.5 9.6 0.00 0.00 0.00 26 1007.4
20260902234027 83 227 3.5 7.8 0.00 0.00 0.00 25 1007.4
20260902233527 83 262 3.5 7.8 0.00 0.00 0.00 25 1007.2
20260902233046 83 252 2.6 7.0 0.00 0.00 0.00 27 1007.3
20260902232529 83 254 2.6 8.7 0.00 0.00 0.00 28 1007.1
20260902232025 83 221 1.7 10.4 0.00 0.00 0.00 27 1007.2
20260902231547 84 236 2.6 10.4 0.00 0.00 0.00 26 1007.2
20260902231026 84 212 4.3 10.4 0.00 0.00 0.00 25 1007.3
20260902230526 84 192 3.5 9.6 0.00 0.00 0.00 26 1007.0
20260902230054 85 204 4.3 9.6 0.00 0.00 0.00 26 1007.1
20260902225528 85 192 4.3 9.6 0.00 0.00 0.00 27 1007.0
20260902225028 85 239 4.3 10.4 0.00 0.00 0.00 26 1007.0
20260902224604 85 232 4.3 10.4 0.00 0.00 0.00 24 1007.0
20260902224027 86 234 4.3 11.3 0.00 0.00 0.00 26 1007.0
20260902223526 86 237 5.2 11.3 0.00 0.00 0.00 27 1007.0
20260902223108 86 238 4.3 13.9 0.00 0.00 0.00 25 1007.0
20260902222527 86 245 4.3 13.9 0.00 0.00 0.00 25 1006.9
20260902222029 86 208 5.2 13.9 0.00 0.00 0.00 25 1006.9
20260902221553 86 218 2.6 11.3 0.00 0.00 0.00 27 1006.9
20260902221027 85 236 4.3 11.3 0.00 0.00 0.00 25 1007.0
20260902220525 85 232 3.5 11.3 0.00 0.00 0.00 25 1007.1
20260902220049 84 210 4.3 7.0 0.00 0.00 0.00 26 1007.1
20260902215527 85 241 2.6 10.4 0.00 0.00 0.00 24 1007.3
20260902215028 85 267 5.2 10.4 0.00 0.00 0.00 25 1007.1
20260902214610 85 234 2.6 5.2 0.00 0.00 0.00 27 1007.2
20260902214026 85 188 2.6 5.2 0.00 0.00 0.00 28 1007.2
20260902213531 85 0 0.9 5.2 0.00 0.00 0.00 25 1007.1
20260902213052 85 216 2.6 7.0 0.00 0.00 0.00 23 1007.3
20260902212527 85 266 2.6 7.0 0.00 0.00 0.00 26 1007.2
20260902212027 85 259 3.5 6.1 0.00 0.00 0.00 24 1007.4
20260902211545 85 214 2.6 5.2 0.00 0.00 0.00 26 1007.5
20260902211026 85 257 1.7 4.3 0.00 0.00 0.00 28 1007.5
20260902210526 85 330 1.7 4.3 0.00 0.00 0.00 28 1007.4
20260902210047 85 83 0.9 4.3 0.00 0.00 0.00 30 1007.6
20260902205525 85 108 1.7 5.2 0.00 0.00 0.00 30 1007.8
20260902205026 85 164 1.7 5.2 0.00 0.00 0.00 28 1007.8
20260902204545 85 131 0.0 3.5 0.00 0.00 0.00 32 1007.9
20260902204026 85 0 0.0 3.5 0.00 0.00 0.00 28 1008.0
20260902203525 85 128 0.9 3.5 0.00 0.00 0.00 30 1008.0
20260902203046 85 27 1.7 4.3 0.00 0.00 0.00 27 1008.1
20260902202527 84 0 0.0 6.1 0.00 0.00 0.00 28 1008.4
20260902202025 84 134 1.7 6.1 0.00 0.00 0.00 29 1008.6
20260902201556 83 196 1.7 6.1 0.00 0.00 0.00 30 1008.6
20260902201024 83 210 2.6 6.1 0.00 0.00 0.00 30 1008.6
20260902200526 83 154 3.5 5.2 0.00 0.00 0.00 31 1008.8
20260902200049 83 103 0.9 7.0 0.00 0.00 0.00 32 1008.7
20260902195527 83 212 1.7 7.0 0.00 0.00 0.00 30 1008.8
20260902195027 83 155 4.3 7.0 0.00 0.00 0.00 30 1008.9
20260902194548 82 188 3.5 9.6 0.00 0.00 0.00 31 1008.9
20260902194027 82 195 2.6 11.3 0.00 0.00 0.00 33 1008.9
20260902193525 82 85 5.2 11.3 0.00 0.00 0.00 31 1008.9
20260902193046 83 139 2.6 8.7 0.00 0.00 0.00 33 1009.1
20260902192525 83 211 1.7 10.4 0.00 0.00 0.00 37 1009.1
20260902192030 83 173 3.5 13.0 0.00 0.00 0.00 30 1009.2
20260902191556 83 136 5.2 13.0 0.00 0.00 0.00 30 1009.3
20260902191029 83 129 4.3 11.3 0.00 0.00 0.00 32 1009.2
20260902190527 83 198 5.2 11.3 0.00 0.00 0.00 33 1009.4
20260902190053 83 240 4.3 12.2 0.00 0.00 0.00 34 1009.3
20260902185526 82 190 4.3 12.2 0.00 0.00 0.00 39 1009.5
20260902185028 82 174 4.3 12.2 0.00 0.00 0.00 32 1009.6
20260902184608 82 97 4.3 9.6 0.00 0.00 0.00 35 1009.7
20260902184028 82 120 4.3 9.6 0.00 0.00 0.00 35 1009.8
20260902183526 82 120 4.3 10.4 0.00 0.00 0.00 34 1010.0
20260902183044 82 146 4.3 10.4 0.00 0.00 0.00 36 1010.0
20260902182525 81 152 4.3 12.2 0.00 0.00 0.00 35 1010.0
20260902182026 81 113 2.6 12.2 0.00 0.00 0.00 38 1010.1
20260902181546 81 76 3.5 8.7 0.00 0.00 0.00 37 1010.1
20260902181025 80 124 3.5 8.7 0.00 0.00 0.00 36 1010.3
20260902180527 80 118 3.5 7.8 0.00 0.00 0.00 38 1010.3
20260902180043 80 60 4.3 8.7 0.00 0.00 0.00 34 1010.4
20260902175525 80 106 4.3 8.7 0.00 0.00 0.00 37 1010.6
20260902175028 80 101 4.3 9.6 0.00 0.00 0.00 36 1010.8
20260902174554 80 75 4.3 9.6 0.00 0.00 0.00 37 1010.7
20260902174027 80 106 2.6 8.7 0.00 0.00 0.00 41 1010.9
20260902173527 80 127 2.6 8.7 0.00 0.00 0.00 37 1011.0
20260902173045 79 108 2.6 8.7 0.00 0.00 0.00 42 1011.0
20260902172526 79 176 3.5 7.8 0.00 0.00 0.00 40 1011.0
20260902172026 79 112 3.5 6.1 0.00 0.00 0.00 39 1011.2
20260902171559 79 87 2.6 7.0 0.00 0.00 0.00 39 1011.1
20260902171025 78 144 2.6 7.0 0.00 0.00 0.00 40 1011.2
20260902170527 78 101 2.6 7.8 0.00 0.00 0.00 39 1011.2
20260902170043 78 139 2.6 7.8 0.00 0.00 0.00 40 1011.4
20260902165525 77 100 2.6 7.8 0.00 0.00 0.00 40 1011.3
20260902165026 77 150 3.5 7.8 0.00 0.00 0.00 40 1011.4
20260902164554 77 103 3.5 7.8 0.00 0.00 0.00 42 1011.4
20260902164024 77 127 3.5 7.8 0.00 0.00 0.00 41 1011.5
20260902163525 76 165 3.5 7.8 0.00 0.00 0.00 44 1011.4
20260902163047 76 105 4.3 7.8 0.00 0.00 0.00 42 1011.5
20260902162530 75 105 2.6 9.6 0.00 0.00 0.00 43 1011.4
20260902162026 75 148 4.3 9.6 0.00 0.00 0.00 44 1011.5
20260902161544 75 122 3.5 7.8 0.00 0.00 0.00 44 1011.6
20260902161029 74 139 2.6 6.1 0.00 0.00 0.00 46 1011.7
20260902160527 73 96 2.6 5.2 0.00 0.00 0.00 48 1011.9
20260902160050 73 109 0.9 8.7 0.00 0.00 0.00 48 1011.9
20260902155527 73 90 2.6 8.7 0.00 0.00 0.00 46 1011.9
20260902155030 73 68 3.5 8.7 0.00 0.00 0.00 44 1011.9
20260902154547 73 122 2.6 7.0 0.00 0.00 0.00 48 1011.8
20260902154025 72 77 3.5 7.0 0.00 0.00 0.00 48 1011.9
20260902153528 71 46 0.9 4.3 0.00 0.00 0.00 53 1012.0
20260902153044 71 105 0.9 4.3 0.00 0.00 0.00 52 1012.0
20260902152525 70 106 0.9 2.6 0.00 0.00 0.00 55 1012.1
20260902152025 69 61 0.9 2.6 0.00 0.00 0.00 56 1012.2
20260902151552 68 0 0.0 2.6 0.00 0.00 0.00 56 1012.4
20260902151026 67 324 0.0 2.6 0.00 0.00 0.00 58 1012.4
20260902150526 66 323 0.9 2.6 0.00 0.00 0.00 58 1012.4
20260902150044 66 1 0.0 2.6 0.00 0.00 0.00 58 1012.4
20260902145525 65 332 0.9 2.6 0.00 0.00 0.00 60 1012.6
20260902145026 65 0 0.0 2.6 0.00 0.00 0.00 60 1012.6
20260902144554 64 9 0.9 2.6 0.00 0.00 0.00 60 1012.6
20260902144024 64 0 0.0 3.5 0.00 0.00 0.00 61 1012.7
20260902143525 63 303 0.9 3.5 0.00 0.00 0.00 60 1012.7
20260902143044 63 100 1.7 4.3 0.00 0.00 0.00 62 1012.5
20260902142526 62 0 0.0 4.3 0.00 0.00 0.00 65 1012.5
20260902142025 61 46 1.7 4.3 0.00 0.00 0.00 64 1012.4
20260902141549 60 39 1.7 3.5 0.00 0.00 0.00 65 1012.2
20260902141025 59 40 0.9 2.6 0.00 0.00 0.00 67 1012.5
20260902140524 59 15 0.9 2.6 0.00 0.00 0.00 67 1012.6
20260902140043 58 15 0.0 3.5 0.00 0.00 0.00 68 1012.6
20260902135527 58 11 0.9 3.5 0.00 0.00 0.00 66 1012.5
20260902135024 58 80 0.9 3.5 0.00 0.00 0.00 67 1012.7
20260902134545 58 77 0.9 3.5 0.00 0.00 0.00 69 1012.8
20260902134025 58 49 0.9 3.5 0.00 0.00 0.00 69 1012.8
20260902133529 58 205 0.0 3.5 0.00 0.00 0.00 69 1012.7
20260902133056 58 53 1.7 3.5 0.00 0.00 0.00 68 1012.4
20260902132528 58 53 0.0 4.3 0.00 0.00 0.00 67 1012.5
20260902132028 57 25 1.7 5.2 0.00 0.00 0.00 69 1012.6
20260902131555 57 1 1.7 5.2 0.00 0.00 0.00 70 1012.5
20260902131026 55 44 2.6 5.2 0.00 0.00 0.00 71 1012.7
20260902130525 55 0 0.0 2.6 0.00 0.00 0.00 76 1012.8
20260902130042 55 0 0.9 2.6 0.00 0.00 0.00 75 1012.7
20260902125527 55 0 0.9 2.6 0.00 0.00 0.00 75 1012.9
20260902125026 55 322 0.9 3.5 0.00 0.00 0.00 76 1012.8
20260902124547 55 335 1.7 3.5 0.00 0.00 0.00 75 1012.6
20260902124027 55 269 0.9 2.6 0.00 0.00 0.00 74 1012.5
20260902123524 55 0 0.9 2.6 0.00 0.00 0.00 73 1012.5
20260902123045 56 271 0.9 2.6 0.00 0.00 0.00 73 1012.5
20260902122532 56 0 0.0 0.9 0.00 0.00 0.00 72 1012.4
20260902122025 55 0 0.0 2.6 0.00 0.00 0.00 70 1012.4
20260902121548 55 0 0.0 2.6 0.00 0.00 0.00 72 1012.5
20260902121026 54 129 0.0 1.7 0.00 0.00 0.00 73 1012.5
20260902120526 54 0 0.0 0.0 0.00 0.00 0.00 75 1012.7
20260902120043 54 0 0.0 0.0 0.00 0.00 0.00 75 1012.7
20260902115528 54 0 0.0 0.0 0.00 0.00 0.00 74 1012.7
20260902115029 54 0 0.0 0.0 0.00 0.00 0.00 74 1012.5
20260902114550 54 0 0.0 0.0 0.00 0.00 0.00 75 1012.5
20260902114026 54 0 0.0 0.0 0.00 0.00 0.00 75 1012.5
20260902113526 54 0 0.0 0.0 0.00 0.00 0.00 75 1012.5
20260902113053 54 0 0.0 0.9 0.00 0.00 0.00 75 1012.4
20260902112525 54 0 0.0 2.6 0.00 0.00 0.00 75 1012.4
20260902112026 55 0 0.0 2.6 0.00 0.00 0.00 75 1012.4
20260902111544 55 260 0.0 1.7 0.00 0.00 0.00 74 1012.4
20260902111026 55 0 0.0 0.0 0.00 0.00 0.00 73 1012.3
20260902110524 55 0 0.0 1.7 0.00 0.00 0.00 73 1012.4
20260902110045 55 0 0.0 2.6 0.00 0.00 0.00 74 1012.2
20260902105525 55 0 0.9 2.6 0.00 0.00 0.00 74 1012.4
20260902105028 55 104 0.9 1.7 0.00 0.00 0.00 75 1012.3
20260902104600 54 104 0.0 1.7 0.00 0.00 0.00 76 1012.2
20260902104024 54 0 0.0 1.7 0.00 0.00 0.00 76 1012.2
20260902103530 54 103 0.9 1.7 0.00 0.00 0.00 77 1012.2
20260902103042 54 0 0.0 1.7 0.00 0.00 0.00 76 1011.9
20260902102525 55 0 0.0 1.7 0.00 0.00 0.00 76 1011.9
20260902102025 55 103 0.9 1.7 0.00 0.00 0.00 76 1012.0
20260902101550 55 103 0.9 1.7 0.00 0.00 0.00 75 1012.0
20260902101025 55 105 0.9 2.6 0.00 0.00 0.00 75 1011.9
20260902100526 55 0 0.0 2.6 0.00 0.00 0.00 74 1011.9
20260902100043 55 105 0.9 2.6 0.00 0.00 0.00 75 1011.9
20260902095523 55 0 0.0 0.9 0.00 0.00 0.00 75 1011.8
20260902095025 55 0 0.0 0.0 0.00 0.00 0.00 75 1011.9
20260902094543 56 0 0.0 0.0 0.00 0.00 0.00 74 1012.0
20260902094024 56 0 0.0 0.9 0.00 0.00 0.00 73 1012.1
20260902093524 56 0 0.0 0.9 0.00 0.00 0.00 73 1012.0
20260902093048 56 0 0.0 0.9 0.00 0.00 0.00 73 1012.2
20260902092524 56 0 0.0 2.6 0.00 0.00 0.00 73 1012.2